Meteor 1-4 Rocket - Orbit

View from above orbital plane
View from above orbital plane
View from above satellite
View from above satellite

Ground track
Ground track

The orbit data is extracted from the following two-line orbital elements,

1 04394U 70037B   13138.15805663  .00006591  00000-0  32295-3 0  3008
2 04394 081.2473 312.6405 0053540 139.2070 221.3188 15.16697364337777
Epoch (UTC): 18 May 2013 03:47:36
Eccentricity: 0.0053540
inclination: 81.2473°
perigee height: 479 km
apogee height: 553 km
right ascension of ascending node: 312.6405°
argument of perigee: 139.2070°
revolutions per day: 15.16697364
mean anomaly at epoch: 221.3188°
orbit number at epoch: 33777

The dashed part of the orbit path shows where the satellite is in the earth's shadow,  

Developed and maintained by Chris Peat, Heavens-Above GmbH. Please read the updated FAQ before sending e-mail. Imprint. DLR